Terug naar catalogus

FENGYUN 1C DEB

ActiefSSO
NORAD 30565·DEBRIS·🇨🇳 China

Gelanceerd May 10, 1999 vanaf Taiyuan Satellite Launch Center

Loading…

Volgende Passages (komende 24 uur)

TLE

VersSource: Space-Track

Epoch: Sep 14, 2026, 13:13 UTC

1 30565U 99025ALF 26257.55129437  .00001885  00000-0  97010-3 0  9994
2 30565  98.4428 116.5859 0138467 288.6491  99.4524 14.11532561998163

Volg FENGYUN 1C DEB in realtime met AllMySat

Download on the App Store